Fontana Observed Data For Previous 48 Hours

Caption
Day and Hour Reservoir Elevation (behind dam)* Tailwater Elevation (below dam)* Average Hourly Discharge*
11/17/2018 2 AM EST 1,669.47 1,279.70 6,915
11/17/2018 3 AM EST 1,669.48 1,279.70 6,915
11/17/2018 4 AM EST 1,669.49 1,279.69 6,905
11/17/2018 5 AM EST 1,669.49 1,279.72 6,920
11/17/2018 6 AM EST 1,669.50 1,279.80 6,916
11/17/2018 7 AM EST 1,669.50 1,279.76 6,913
11/17/2018 8 AM EST 1,669.51 1,279.74 6,922
11/17/2018 9 AM EST 1,669.52 1,279.74 6,913
11/17/2018 10 AM EST 1,669.52 1,279.70 6,913
11/17/2018 11 AM EST 1,669.52 1,279.71 6,909
11/17/2018 12 PM EST 1,669.53 1,279.74 6,905
11/17/2018 1 PM EST 1,669.52 1,279.76 6,924
11/17/2018 2 PM EST 1,669.52 1,279.74 6,919
11/17/2018 3 PM EST 1,669.51 1,279.76 6,914
11/17/2018 4 PM EST 1,669.51 1,279.74 6,916
11/17/2018 5 PM EST 1,669.51 1,279.77 6,922
11/17/2018 6 PM EST 1,669.51 1,279.72 6,905
11/17/2018 7 PM EST 1,669.51 1,279.76 6,919
11/17/2018 8 PM EST 1,669.51 1,279.70 6,912
11/17/2018 9 PM EST 1,669.52 1,279.73 6,920
11/17/2018 10 PM EST 1,669.52 1,279.71 6,909
11/17/2018 11 PM EST 1,669.52 1,279.73 6,916
11/18/2018 12 AM EST 1,669.52 1,279.69 6,913
11/18/2018 1 AM EST 1,669.52 1,279.72 6,916
11/18/2018 2 AM EST 1,669.51 1,279.75 6,915
11/18/2018 3 AM EST 1,669.51 1,279.73 6,913
11/18/2018 4 AM EST 1,669.50 1,279.79 6,909
11/18/2018 5 AM EST 1,669.50 1,279.77 6,916
11/18/2018 6 AM EST 1,669.49 1,279.78 6,910
11/18/2018 7 AM EST 1,669.48 1,279.83 6,916
11/18/2018 8 AM EST 1,669.48 1,279.73 6,922
11/18/2018 9 AM EST 1,669.47 1,279.79 6,918
11/18/2018 10 AM EST 1,669.46 1,279.76 6,915
11/18/2018 11 AM EST 1,669.45 1,279.76 6,908
11/18/2018 12 PM EST 1,669.44 1,279.77 6,902
11/18/2018 1 PM EST 1,669.43 1,279.81 6,920
11/18/2018 2 PM EST 1,669.82 1,279.72 6,917
11/18/2018 3 PM EST 1,669.81 1,279.79 6,916
11/18/2018 4 PM EST 1,669.79 1,279.80 6,923
11/18/2018 5 PM EST 1,669.79 1,279.73 6,912
11/18/2018 6 PM EST 1,669.76 1,279.72 6,920
11/18/2018 7 PM EST 1,669.76 1,279.74 6,915
11/18/2018 8 PM EST 1,669.75 1,279.75 6,914
11/18/2018 9 PM EST 1,669.75 1,279.71 6,910
11/18/2018 10 PM EST 1,669.75 1,279.73 6,917
11/18/2018 11 PM EST 1,669.73 1,279.70 6,917
11/19/2018 12 AM EST 1,669.73 1,279.70 6,916
11/19/2018 1 AM EST 1,669.72 1,279.75 6,926
11/19/2018 2 AM EST 1,669.71 1,279.80 6,919
11/19/2018 3 AM EST 1,669.69 1,279.74 6,928
11/19/2018 4 AM EST 1,669.68 1,279.78 6,925
11/19/2018 5 AM EST 1,669.67 1,279.82 6,913
11/19/2018 6 AM EST 1,669.65 1,279.82 6,924
11/19/2018 7 AM EST 1,669.64 1,279.77 6,918
11/19/2018 8 AM EST 1,669.63 1,279.79 6,933
11/19/2018 9 AM EST 1,669.61 1,279.77 6,922
11/19/2018 10 AM EST 1,669.60 1,279.76 6,922
11/19/2018 11 AM EST 1,669.58 1,279.78 6,917
11/19/2018 12 PM EST 1,669.57 1,279.74 6,920

Elevations are in feet above sea level. Discharges are in cubic feet per second and are reported at the end of the hour.